Regional Weather Roundup
Issued by NWS Cleveland, OH

Home | Current Version | Previous Version | Graphics & Text | Print | Product List | Glossary On
Versions: 1 2 3 4 5 6 7 8 9 10 11 12 13 14 15 16 17 18 19 20 21 22 23 24 25 26 27 28 29 30 31 32 33 34 35 36 37 38 39 40 41 42 43 44 45 46 47 48 49 50
000
ASUS41 KCLE 251612
RWRCLE
OHIO REGIONAL WEATHER ROUNDUP
NATIONAL WEATHER SERVICE WILMINGTON, OH
1200 PM EDT SUN SEP 25 2016

NOTE: "FAIR" INDICATES FEW OR NO CLOUDS BELOW 12,000 FEET WITH NO
SIGNIFICANT WEATHER AND/OR OBSTRUCTIONS TO VISIBILITY.

OHZ001>008-015>018-024>027-034-035-043-044-251700-
   NORTHWEST OHIO

CITY           SKY/WX    TMP DP  RH WIND       PRES   REMARKS
DEFIANCE       FAIR      70  52  52 SE6       30.17F
FINDLAY        FAIR      72  51  47 SE3       30.16F
TOLEDO EXPRESS FAIR      67  51  56 E8        30.18F
TOLEDO EXEC    FAIR      69  51  52 E8        30.18F
LIMA           FAIR      73  57  57 CALM      30.16F
$$

OHZ009>014-019>023-028>033-038-089-251700-
   NORTHEAST OHIO

CITY           SKY/WX    TMP DP  RH WIND       PRES   REMARKS
CLE-HOPKINS    FAIR      69  45  41 S5        30.21F
CLE-LAKEFRONT  FAIR      69  45  41 E3        30.19F
CUY CO. ARPT   MOSUNNY   68  52  56 E9        30.21F
LORAIN-ELYRIA  FAIR      67  47  48 VRB7      30.19F
ASHTABULA      FAIR      63  40  42 SE7       30.23F
AKRON-CANTON   FAIR      67  48  50 E6        30.20F
WOOSTER        FAIR      68  49  50 S5        30.20F
MANSFIELD      FAIR      68  50  52 CALM      30.19F
YOUNGSTOWN     FAIR      64  48  56 VRB3      30.21F
$$

OHZ042-051>053-060>062-070>072-077>081-251700-
  SOUTHWEST OHIO

CITY           SKY/WX    TMP DP  RH WIND       PRES   REMARKS
CINC-COVINGTON FAIR      78  64  61 SE5       30.14F
CINC-LUNKEN    FAIR      76  65  68 CALM      30.14F
HAMILTON       FAIR      75  60  59 CALM      30.15F
DAYTON         FAIR      73  59  61 S5        30.17S
WRIGHT-PAT AFB MOSUNNY   74  60  61 S5        30.15F
DAYTON GENERAL FAIR      74  60  61 CALM      30.15F
WILMINGTON     FAIR      76  62  62 CALM      30.15F
$$

OHZ036-037-039>041-045>050-054>059-063>069-073>076-082>088-251700-
  CENTRAL AND SOUTHEAST OHIO

CITY           SKY/WX    TMP DP  RH WIND       PRES   REMARKS
COLUMBUS       FAIR      74  57  55 VRB3      30.16F
OSU AIRPORT    FAIR      72  59  63 E6        30.17S
BOLTON FIELD   SUNNY     72  57  60 CALM      30.17S
RICKENBACK AFB FAIR      71  57  62 NE3       30.16S
NEWARK         FAIR      70  54  56 E5        30.17F
MARION         FAIR      72  50  45 E6        30.18F
LANCASTER      FAIR      74  54  49 E6        30.16F
ZANESVILLE     FAIR      72  52  49 NE6       30.17F
NEW PHILLY     FAIR      69  51  52 SE3       30.19F
$$



USA.gov is the U.S. government's official web portal to all federal, state and local government web resources and services.